Time,TemperatureF,DewpointF,PressureIn,WindDirection,WindDirectionDegrees,WindSpeedMPH,WindSpeedGustMPH,Humidity,HourlyPrecipIn,Conditions,Clouds,dailyrainin,SoftwareType,DateUTC
2013-04-18 00:00:00,50.0,-99.9,-100.00,ESE,123,14.0,22.0,-999,0.08,,,4.93,,2013-04-18 05:00:00,
2013-04-18 00:42:00,50.0,-99.9,-100.00,ESE,123,14.0,22.0,-999,0.08,,,4.93,,2013-04-18 05:42:00,
2013-04-18 00:52:00,50.0,-99.9,-100.00,ESE,123,14.0,22.0,-999,0.08,,,4.93,,2013-04-18 05:52:00,
2013-04-18 01:00:00,49.0,-99.9,-100.00,WNW,293,5.0,12.0,-999,0.05,,,4.98,,2013-04-18 06:00:00,
2013-04-18 01:42:00,49.0,-99.9,-100.00,WNW,293,5.0,12.0,-999,0.05,,,4.98,,2013-04-18 06:42:00,
2013-04-18 01:52:00,49.0,-99.9,-100.00,WNW,293,5.0,12.0,-999,0.05,,,4.98,,2013-04-18 06:52:00,
2013-04-18 02:00:00,44.0,-99.9,-100.00,North,354,5.0,14.0,-999,0.24,,,5.22,,2013-04-18 07:00:00,
2013-04-18 02:42:00,44.0,-99.9,-100.00,North,354,5.0,14.0,-999,0.24,,,5.22,,2013-04-18 07:42:00,
2013-04-18 02:53:00,44.0,-99.9,-100.00,North,354,5.0,14.0,-999,0.24,,,5.22,,2013-04-18 07:53:00,
2013-04-18 03:00:00,44.0,-99.9,-100.00,NW,323,3.0,7.0,-999,0.21,,,5.43,,2013-04-18 08:00:00,
2013-04-18 03:42:00,44.0,-99.9,-100.00,NW,323,3.0,7.0,-999,0.21,,,5.43,,2013-04-18 08:42:00,
2013-04-18 03:52:00,44.0,-99.9,-100.00,NW,323,3.0,7.0,-999,0.21,,,5.43,,2013-04-18 08:52:00,
2013-04-18 04:00:00,43.0,-99.9,-100.00,NW,326,3.0,9.0,-999,0.21,,,5.57,,2013-04-18 09:00:00,
2013-04-18 04:43:00,43.0,-99.9,-100.00,NW,326,3.0,9.0,-999,0.21,,,5.57,,2013-04-18 09:43:00,
2013-04-18 04:53:00,43.0,-99.9,-100.00,NW,326,3.0,9.0,-999,0.21,,,5.57,,2013-04-18 09:53:00,
2013-04-18 05:00:00,42.0,-99.9,-100.00,NW,318,4.0,9.0,-999,0.10,,,5.66,,2013-04-18 10:00:00,
2013-04-18 05:42:00,42.0,-99.9,-100.00,NW,318,4.0,9.0,-999,0.10,,,5.66,,2013-04-18 10:42:00,
2013-04-18 05:53:00,42.0,-99.9,-100.00,NW,318,4.0,9.0,-999,0.10,,,5.66,,2013-04-18 10:53:00,
2013-04-18 06:00:00,41.0,-99.9,-100.00,NNE,12,5.0,15.0,-999,0.02,,,5.42,,2013-04-18 11:00:00,
2013-04-18 06:42:00,41.0,-99.9,-100.00,NNE,12,5.0,15.0,-999,0.02,,,5.42,,2013-04-18 11:42:00,
2013-04-18 06:52:00,41.0,-99.9,-100.00,NNE,12,5.0,15.0,-999,0.02,,,5.42,,2013-04-18 11:52:00,
2013-04-18 07:00:00,41.0,-99.9,-100.00,NNE,23,6.0,21.0,-999,0.00,,,5.17,,2013-04-18 12:00:00,
2013-04-18 07:42:00,41.0,-99.9,-100.00,NNE,23,6.0,21.0,-999,0.00,,,5.17,,2013-04-18 12:42:00,
2013-04-18 07:53:00,41.0,-99.9,-100.00,NNE,23,6.0,21.0,-999,0.00,,,5.17,,2013-04-18 12:53:00,
2013-04-18 08:00:00,41.0,-99.9,-100.00,NNE,16,4.0,7.0,-999,0.00,,,4.75,,2013-04-18 13:00:00,
2013-04-18 08:43:00,41.0,-99.9,-100.00,NNE,16,4.0,7.0,-999,0.00,,,4.75,,2013-04-18 13:43:00,
2013-04-18 08:53:00,41.0,-99.9,-100.00,NNE,16,4.0,7.0,-999,0.00,,,4.75,,2013-04-18 13:53:00,
2013-04-18 09:00:00,41.0,-99.9,-100.00,NE,53,2.0,7.0,-999,0.08,,,3.83,,2013-04-18 14:00:00,
2013-04-18 09:43:00,41.0,-99.9,-100.00,NE,53,2.0,7.0,-999,0.08,,,3.83,,2013-04-18 14:43:00,
2013-04-18 09:53:00,41.0,-99.9,-100.00,NE,53,2.0,7.0,-999,0.08,,,3.83,,2013-04-18 14:53:00,
2013-04-18 10:00:00,42.0,-99.9,-100.00,NNE,26,2.0,5.0,-999,0.00,,,2.73,,2013-04-18 15:00:00,
2013-04-18 10:43:00,42.0,-99.9,-100.00,NNE,26,2.0,5.0,-999,0.00,,,2.73,,2013-04-18 15:43:00,
2013-04-18 10:53:00,42.0,-99.9,-100.00,NNE,26,2.0,5.0,-999,0.00,,,2.73,,2013-04-18 15:53:00,
2013-04-18 11:00:00,42.0,-99.9,-100.00,WNW,295,4.0,9.0,-999,0.04,,,2.64,,2013-04-18 16:00:00,
2013-04-18 11:43:00,42.0,-99.9,-100.00,WNW,295,4.0,9.0,-999,0.04,,,2.64,,2013-04-18 16:43:00,
2013-04-18 11:53:00,42.0,-99.9,-100.00,WNW,295,4.0,9.0,-999,0.04,,,2.64,,2013-04-18 16:53:00,
2013-04-18 13:00:00,40.0,-99.9,-100.00,WNW,295,8.0,21.0,-999,0.00,,,2.53,,2013-04-18 18:00:00,
2013-04-18 13:43:00,40.0,-99.9,-100.00,WNW,295,8.0,21.0,-999,0.00,,,2.53,,2013-04-18 18:43:00,
2013-04-18 13:53:00,40.0,-99.9,-100.00,WNW,295,8.0,21.0,-999,0.00,,,2.53,,2013-04-18 18:53:00,
2013-04-18 14:00:00,39.0,-99.9,-100.00,WNW,302,10.0,17.0,-999,0.00,,,2.51,,2013-04-18 19:00:00,
2013-04-18 14:43:00,39.0,-99.9,-100.00,WNW,302,10.0,17.0,-999,0.00,,,2.51,,2013-04-18 19:43:00,
2013-04-18 14:53:00,39.0,-99.9,-100.00,WNW,302,10.0,17.0,-999,0.00,,,2.51,,2013-04-18 19:53:00,
2013-04-18 15:00:00,40.0,-99.9,-100.00,WNW,302,7.0,16.0,-999,0.00,,,2.33,,2013-04-18 20:00:00,
2013-04-18 15:43:00,40.0,-99.9,-100.00,WNW,302,7.0,16.0,-999,0.00,,,2.33,,2013-04-18 20:43:00,
2013-04-18 15:52:00,40.0,-99.9,-100.00,WNW,302,7.0,16.0,-999,0.00,,,2.33,,2013-04-18 20:52:00,
2013-04-18 17:00:00,39.0,-99.9,-100.00,West,278,11.0,30.0,-999,0.00,,,2.13,,2013-04-18 22:00:00,
2013-04-18 17:42:00,39.0,-99.9,-100.00,West,278,11.0,30.0,-999,0.00,,,2.13,,2013-04-18 22:42:00,
2013-04-18 17:53:00,39.0,-99.9,-100.00,West,278,11.0,30.0,-999,0.00,,,2.13,,2013-04-18 22:53:00,
2013-04-18 18:00:00,38.0,-99.9,-100.00,WNW,282,10.0,21.0,-999,0.00,,,2.04,,2013-04-18 23:00:00,
2013-04-18 18:42:00,38.0,-99.9,-100.00,WNW,282,10.0,21.0,-999,0.00,,,2.04,,2013-04-18 23:42:00,
2013-04-18 18:52:00,38.0,-99.9,-100.00,WNW,282,10.0,21.0,-999,0.00,,,2.04,,2013-04-18 23:52:00,
2013-04-18 20:00:00,37.0,-99.9,-100.00,WNW,288,10.0,20.0,-999,0.01,,,1.57,,2013-04-19 01:00:00,
2013-04-18 20:42:00,37.0,-99.9,-100.00,WNW,288,10.0,20.0,-999,0.01,,,1.57,,2013-04-19 01:42:00,
2013-04-18 20:52:00,37.0,-99.9,-100.00,WNW,288,10.0,20.0,-999,0.01,,,1.57,,2013-04-19 01:52:00,
2013-04-18 21:00:00,37.0,-99.9,-100.00,West,276,12.0,21.0,-999,0.00,,,1.40,,2013-04-19 02:00:00,
2013-04-18 21:42:00,37.0,-99.9,-100.00,West,276,12.0,21.0,-999,0.00,,,1.40,,2013-04-19 02:42:00,
2013-04-18 21:52:00,37.0,-99.9,-100.00,West,276,12.0,21.0,-999,0.00,,,1.40,,2013-04-19 02:52:00,
2013-04-18 22:00:00,37.0,-99.9,-100.00,WNW,282,9.0,19.0,-999,0.00,,,1.18,,2013-04-19 03:00:00,
2013-04-18 22:43:00,37.0,-99.9,-100.00,WNW,282,9.0,19.0,-999,0.00,,,1.18,,2013-04-19 03:43:00,
2013-04-18 22:54:00,37.0,-99.9,-100.00,WNW,282,9.0,19.0,-999,0.00,,,1.18,,2013-04-19 03:54:00,
2013-04-18 23:00:00,36.0,-99.9,-100.00,WNW,289,11.0,23.0,-999,0.00,,,1.08,,2013-04-19 04:00:00,
2013-04-18 23:43:00,36.0,-99.9,-100.00,WNW,289,11.0,23.0,-999,0.00,,,1.08,,2013-04-19 04:43:00,
2013-04-18 23:52:00,36.0,-99.9,-100.00,WNW,289,11.0,23.0,-999,0.00,,,1.08,,2013-04-19 04:52:00,